Regional Weather Roundup
Issued by NWS

Home | Current Version | Previous Version | Graphics & Text | Print | Product List | Glossary On
Versions: 1 2 3 4 5 6 7 8 9 10 11 12 13 14 15 16 17 18 19 20 21 22 23 24 25 26 27 28 29 30 31 32 33 34 35 36 37 38 39 40 41 42 43 44 45 46 47 48 49 50
000
ASUS45 KSLC 140410
RWRUT

UTAH REGIONAL WEATHER ROUNDUP
NATIONAL WEATHER SERVICE SALT LAKE CITY UT
1000 PM MDT SUN JUL 13 2014

UTZ001>011-023>025-140500-

NORTHERN UTAH

CITY           SKY/WX    TMP DP  RH WIND       PRES   REMARKS
HILL AFB       PTCLDY    82  45  26 SE7       30.14R
LOGAN          CLEAR     80  53  39 S5        30.12R
OGDEN          PTCLDY    81  46  29 CALM      30.10R
PROVO AIRPORT  PTCLDY    79  59  50 NE6       30.12R
SALT LAKE CITY MOCLDY    86  50  28 W6        30.08R
VERNAL         PTCLDY    76  45  33 NW6       30.17R
WENDOVER       PTCLDY    88  43  20 NE5       30.08R
HEBER CITY     PTCLDY    68  54  60 SE5       30.21R
WEST JORDAN    CLEAR     86  50  28 W7        30.12

$$

UTZ012>022-026-027-140500-

SOUTHERN UTAH

CITY           SKY/WX    TMP DP  RH WIND       PRES   REMARKS
BRYCE CANYON   MOCLDY    63  54  72 W8        30.37R
CEDAR CITY     MOCLDY    84  44  24 E5        30.15R
MILFORD        MOCLDY    84  37  18 N7        30.09R
MOAB/CYNLANDS  CLEAR     90  43  19 NE6       30.03R
PRICE          PTCLDY    75  52  44 N13       30.21R
ST GEORGE      PTCLDY    97  48  19 S14       29.90R HX  93

$$

REGIONAL REPORTS     COLORADO/ARIZONA

CITY           SKY/WX    TMP DP  RH WIND       PRES   REMARKS
CRAIG, CO      CLEAR     62  54  74 CALM      30.28R
GRAND JUNCTION PTCLDY    85  39  19 NE5       30.09R
RIFLE          PTCLDY    77  45  32 VRB3      30.18R
MONTROSE       MOCLDY    81  48  31 S7        30.20R
CORTEZ         CLEAR     73  55  53 E5        30.21R
PAGE, AZ       MOCLDY    92  49  22 VRB5      30.03R
GRAND CANYON   CLOUDY    67  57  70 CALM      30.31R
KINGMAN        CLOUDY    84  56  38 N13       30.04R
FLAGSTAFF      CLOUDY    67  51  56 CALM      30.33S

$$

REGIONAL REPORTS    NEVADA/IDAHO/WYOMING

CITY           SKY/WX    TMP DP  RH WIND       PRES   REMARKS
LAS VEGAS, NV  CLOUDY   104  45  13 S16G24    29.80R HX 100
ELY            MOCLDY    81  39  22 SW9       30.22R
ELKO           CLEAR     89  36  15 E6        30.09S
POCATELLO, ID  CLEAR     80  46  30 E6        30.13R
BURLEY         CLEAR     74  61  63 CALM      30.07S
EVANSTON, WY   CLEAR     74  40  29 N8        30.36R
ROCK SPRINGS   CLEAR     73  40  30 NE16      30.33R

$$


USA.gov is the U.S. government's official web portal to all federal, state and local government web resources and services.